{"data":{"norad_id":44115,"epoch":"2026-09-19T00:20:27.134016Z","epoch_age_seconds":146529,"freshness":"FRESH","line1":"1 44115U 19020D   26262.01420294 -.00000028  00000+0  00000+0 0  9996","line2":"2 44115   0.0544 352.9691 0002724 186.4327 180.6006  5.00115474136346","mean_motion":5.00115474,"eccentricity":0.0002724,"inclination_deg":0.0544,"raan_deg":352.9691,"arg_perigee_deg":186.4327,"mean_anomaly_deg":180.6006,"bstar":0,"rev_number":13634,"period_min":287.9335023335,"perigee_km":8061.9561657481,"apogee_km":8069.8252720494,"semimajor_km":14444.027718899,"source":"CELESTRAK","updated_at":"2026-09-20T09:00:35.687364Z"}}